This is the latest recevied weather packets stored in our database for station/object KD9JJA. If no packets are shown the sender has not sent any weather packets the latest 1 day(s).
| Time | Temp. | Humidity | Pressure | Rain* | Wind** | Luminosity | Snow |
|---|---|---|---|---|---|---|---|
| 1778003679 | 15° C | 99% | 1009.7 hPa | 0 mm | 0.45 m/s, 145° | 41 W/m² | - |
| 1778003376 | 15.56° C | 99% | 1009.7 hPa | 0 mm | 0 m/s | 66 W/m² | - |
| 1778003073 | 15.56° C | 99% | 1010.3 hPa | 0 mm | 0 m/s | 45 W/m² | - |
| 1778002769 | 15.56° C | 99% | 1010.2 hPa | 0 mm | 0 m/s | 33 W/m² | - |
| 1778002466 | 15.56° C | 99% | 1010.1 hPa | 0 mm | 0 m/s | 43 W/m² | - |
| 1778002163 | 15.56° C | 99% | 1009.9 hPa | 1.78 mm | 0 m/s | 30 W/m² | - |
| 1778001861 | 15.56° C | 99% | 1010.4 hPa | 3.05 mm | 0 m/s | 33 W/m² | - |
| 1778001560 | 15.56° C | 99% | 1010.4 hPa | 3.05 mm | 0 m/s | 38 W/m² | - |
| 1778001257 | 15.56° C | 99% | 1010.5 hPa | 1.27 mm | 0 m/s | 28 W/m² | - |
| 1778000954 | 15.56° C | 98% | 1010.3 hPa | 0 mm | 0 m/s | 37 W/m² | - |
| 1778000651 | 15.56° C | 97% | 1010.5 hPa | 0 mm | 0 m/s | 41 W/m² | - |
| 1778000346 | 16.11° C | 96% | 1010.7 hPa | 0 mm | 0 m/s | 28 W/m² | - |
| 1778000042 | 16.11° C | 94% | 1010.5 hPa | 0 mm | 0.89 m/s, 230° | 12 W/m² | - |
| 1777999738 | 16.11° C | 94% | 1010.4 hPa | 0 mm | 0.89 m/s, 246° | 32 W/m² | - |
| 1777999435 | 16.11° C | 94% | 1010.7 hPa | 0 mm | 0.45 m/s, 218° | 16 W/m² | - |
| 1777999133 | 16.11° C | 94% | 1010.5 hPa | 0 mm | 0.45 m/s, 215° | 16 W/m² | - |
| 1777998832 | 16.11° C | 93% | 1010.3 hPa | 0 mm | 0 m/s | 23 W/m² | - |
| 1777998530 | 16.11° C | 94% | 1010.5 hPa | 0 mm | 0 m/s | 30 W/m² | - |
| 1777998225 | 16.11° C | 93% | 1010.4 hPa | 0 mm | 0.45 m/s, 223° | 24 W/m² | - |
| 1777997923 | 16.11° C | 93% | 1010.4 hPa | 0 mm | 0.45 m/s, 222° | 38 W/m² | - |
| 1777997619 | 16.11° C | 94% | 1010.4 hPa | 0 mm | 0.45 m/s, 210° | 29 W/m² | - |
| 1777997317 | 16.11° C | 94% | 1010.4 hPa | 0 mm | 0.45 m/s, 221° | 32 W/m² | - |
| 1777997015 | 16.11° C | 94% | 1010.6 hPa | 0 mm | 0.89 m/s, 242° | 34 W/m² | - |
| 1777996711 | 16.11° C | 94% | 1010.5 hPa | 0 mm | 0.89 m/s, 230° | 35 W/m² | - |
| 1777996407 | 16.11° C | 94% | 1010.5 hPa | 0 mm | 0.89 m/s, 224° | 23 W/m² | - |
* Rain latest hour (hover to see other rain measurements)
** Current wind speed in m/s (hover to see current wind gust speed)